This is the latest recevied weather packets stored in our database for station/object KQ4PPF. If no packets are shown the sender has not sent any weather packets the latest 10 day(s).
| Time | Temp. | Humidity | Pressure | Rain* | Wind** | Luminosity | Snow |
|---|---|---|---|---|---|---|---|
| 1787842742 | 27.78° C | 78% | 1015.6 hPa | 0 mm | - | 88 W/m² | - |
| 1787842436 | 28.33° C | 78% | 1015.5 hPa | 0 mm | - | 122 W/m² | - |
| 1787842131 | 27.78° C | 80% | 1015.5 hPa | 0 mm | - | 161 W/m² | - |
| 1787841826 | 27.22° C | 84% | 1015.8 hPa | 0 mm | - | 159 W/m² | - |
| 1787841523 | 26.67° C | 82% | 1015.6 hPa | 0 mm | - | 403 W/m² | - |
| 1787841221 | 26.11° C | 85% | 1015.3 hPa | 0 mm | - | 97 W/m² | - |
| 1787840916 | 26.67° C | 85% | 1015.5 hPa | 0 mm | - | 441 W/m² | - |
| 1787840611 | 26.11° C | 85% | 1015.4 hPa | 0 mm | - | 437 W/m² | - |
| 1787840307 | 25° C | 89% | 1015.6 hPa | 0 mm | - | 439 W/m² | - |
| 1787840006 | 24.44° C | 90% | 1015.7 hPa | 0 mm | - | 300 W/m² | - |
| 1787839701 | 23.89° C | 92% | 1015.5 hPa | 0 mm | - | 66 W/m² | - |
| 1787839396 | 23.89° C | 92% | 1015.5 hPa | 0 mm | - | 44 W/m² | - |
| 1787839096 | 23.89° C | 92% | 1015.5 hPa | 0 mm | - | 39 W/m² | - |
| 1787838794 | 23.89° C | 91% | 1015.5 hPa | 0 mm | - | 41 W/m² | - |
| 1787838489 | 23.89° C | 91% | 1015.7 hPa | 0 mm | - | 47 W/m² | - |
| 1787838188 | 23.89° C | 91% | 1016.1 hPa | 0 mm | - | 62 W/m² | - |
| 1787837887 | 23.89° C | 91% | 1015.9 hPa | 0 mm | - | 79 W/m² | - |
| 1787837586 | 23.89° C | 91% | 1015.9 hPa | 0 mm | - | 91 W/m² | - |
| 1787837281 | 23.89° C | 92% | 1015.6 hPa | 0 mm | - | 93 W/m² | - |
| 1787836977 | 23.89° C | 91% | 1015.7 hPa | 0 mm | - | 68 W/m² | - |
| 1787836671 | 23.89° C | 92% | 1015.4 hPa | 0 mm | - | 61 W/m² | - |
| 1787836370 | 23.33° C | 93% | 1015.4 hPa | 0 mm | - | 63 W/m² | - |
| 1787836066 | 23.33° C | 94% | 1015.3 hPa | 0 mm | - | 61 W/m² | - |
| 1787835762 | 22.78° C | 95% | 1015.3 hPa | 0 mm | - | 54 W/m² | - |
| 1787835456 | 22.22° C | 96% | 1015.2 hPa | 0 mm | - | 49 W/m² | - |
* Rain latest hour (hover to see other rain measurements)
** Current wind speed in m/s (hover to see current wind gust speed)